Time,TemperatureF,DewpointF,PressureIn,WindDirection,WindDirectionDegrees,WindSpeedMPH,WindSpeedGustMPH,Humidity,HourlyPrecipIn,Conditions,Clouds,dailyrainin,SoftwareType,DateUTC
2013-07-22 00:00:00,73.7,68.6,29.81,SSW,202,2.0,3.0,84,0.00,,---,0.00,VWS V14.01,2013-07-22 05:00:00,
2013-07-22 00:02:00,73.9,69.0,29.81,SSE,152,1.0,3.0,84,0.00,,,0.00,weatherlink.com 1.10,2013-07-22 05:02:00,
2013-07-22 00:10:00,73.9,69.1,29.81,SSW,202,1.0,4.0,85,0.00,,---,0.00,VWS V14.01,2013-07-22 05:10:00,
2013-07-22 00:17:00,73.6,69.0,29.81,South,174,1.0,3.0,85,0.00,,,0.00,weatherlink.com 1.10,2013-07-22 05:17:00,
2013-07-22 00:20:00,73.7,68.9,29.81,SSW,202,1.0,3.0,85,0.00,,---,0.00,VWS V14.01,2013-07-22 05:20:00,
2013-07-22 00:30:00,73.9,69.4,29.81,South,180,1.0,2.0,86,0.00,,---,0.00,VWS V14.01,2013-07-22 05:30:00,
2013-07-22 00:32:00,73.6,69.0,29.81,SSW,211,1.0,2.0,86,0.00,,,0.00,weatherlink.com 1.10,2013-07-22 05:32:00,
2013-07-22 00:40:00,73.6,69.5,29.81,SSW,202,1.0,3.0,87,0.00,,---,0.00,VWS V14.01,2013-07-22 05:40:00,
2013-07-22 00:47:00,73.8,69.0,29.80,SSW,198,1.0,3.0,86,0.00,,,0.00,weatherlink.com 1.10,2013-07-22 05:47:00,
2013-07-22 00:50:00,73.8,69.7,29.80,South,180,2.0,3.0,87,0.00,,---,0.00,VWS V14.01,2013-07-22 05:50:00,
2013-07-22 01:00:00,73.6,69.8,29.80,South,180,2.0,5.0,88,0.00,,---,0.00,VWS V14.01,2013-07-22 06:00:00,
2013-07-22 01:02:00,73.8,70.0,29.80,SSW,193,2.0,5.0,88,0.00,,,0.00,weatherlink.com 1.10,2013-07-22 06:02:00,
2013-07-22 01:10:00,73.8,70.0,29.80,SSW,202,2.0,4.0,88,0.00,,---,0.00,VWS V14.01,2013-07-22 06:10:00,
2013-07-22 01:17:00,73.3,70.0,29.80,SSW,197,1.0,4.0,89,0.00,,,0.00,weatherlink.com 1.10,2013-07-22 06:17:00,
2013-07-22 01:20:00,73.3,69.9,29.80,SSW,202,1.0,4.0,89,0.00,,---,0.00,VWS V14.01,2013-07-22 06:20:00,
2013-07-22 01:30:00,73.2,69.8,29.80,SSW,202,2.0,5.0,89,0.00,,---,0.00,VWS V14.01,2013-07-22 06:30:00,
2013-07-22 01:32:00,73.1,70.0,29.80,SSW,203,1.0,5.0,89,0.00,,,0.00,weatherlink.com 1.10,2013-07-22 06:32:00,
2013-07-22 01:40:00,73.0,69.6,29.80,SSW,202,2.0,4.0,89,0.00,,---,0.00,VWS V14.01,2013-07-22 06:40:00,
2013-07-22 01:47:00,72.8,70.0,29.79,SSE,153,1.0,3.0,89,0.00,,,0.00,weatherlink.com 1.10,2013-07-22 06:47:00,
2013-07-22 01:50:00,72.9,69.5,29.79,SSW,202,1.0,3.0,89,0.00,,---,0.00,VWS V14.01,2013-07-22 06:50:00,
2013-07-22 02:00:00,73.2,69.4,29.79,SSW,202,2.0,6.0,88,0.00,,---,0.00,VWS V14.01,2013-07-22 07:00:00,
2013-07-22 02:02:00,73.2,69.0,29.79,SSW,197,1.0,6.0,87,0.00,,,0.00,weatherlink.com 1.10,2013-07-22 07:02:00,
2013-07-22 02:10:00,73.3,69.2,29.79,SSW,202,2.0,5.0,87,0.00,,---,0.00,VWS V14.01,2013-07-22 07:10:00,
2013-07-22 02:17:00,73.2,69.0,29.79,SSW,206,3.0,5.0,87,0.00,,,0.00,weatherlink.com 1.10,2013-07-22 07:17:00,
2013-07-22 02:20:00,73.2,69.1,29.78,SSW,202,2.0,5.0,87,0.00,,---,0.00,VWS V14.01,2013-07-22 07:20:00,
2013-07-22 02:30:00,73.2,69.1,29.78,SSW,202,1.0,5.0,87,0.00,,---,0.00,VWS V14.01,2013-07-22 07:30:00,
2013-07-22 02:32:00,73.0,69.0,29.78,South,179,2.0,5.0,88,0.00,,,0.00,weatherlink.com 1.10,2013-07-22 07:32:00,
2013-07-22 02:40:00,72.9,69.1,29.79,SSW,202,1.0,4.0,88,0.00,,---,0.00,VWS V14.01,2013-07-22 07:40:00,
2013-07-22 02:47:00,72.9,69.0,29.79,SSW,203,0.0,5.0,88,0.00,,,0.00,weatherlink.com 1.10,2013-07-22 07:47:00,
2013-07-22 02:50:00,72.9,68.8,29.79,SSW,202,2.0,5.0,87,0.00,,---,0.00,VWS V14.01,2013-07-22 07:50:00,
2013-07-22 03:00:00,72.9,69.1,29.79,SSW,202,1.0,4.0,88,0.00,,---,0.00,VWS V14.01,2013-07-22 08:00:00,
2013-07-22 03:02:00,72.4,69.0,29.79,South,182,0.0,4.0,88,0.00,,,0.00,weatherlink.com 1.10,2013-07-22 08:02:00,
2013-07-22 03:10:00,72.3,68.9,29.78,SSW,202,1.0,5.0,89,0.00,,---,0.00,VWS V14.01,2013-07-22 08:10:00,
2013-07-22 03:17:00,72.3,69.0,29.78,SW,229,2.0,5.0,89,0.00,,,0.00,weatherlink.com 1.10,2013-07-22 08:17:00,
2013-07-22 03:20:00,72.3,68.9,29.78,SSW,202,2.0,5.0,89,0.00,,---,0.00,VWS V14.01,2013-07-22 08:20:00,
2013-07-22 03:30:00,72.3,68.9,29.78,SSW,202,2.0,7.0,89,0.00,,---,0.00,VWS V14.01,2013-07-22 08:30:00,
2013-07-22 03:32:00,72.0,69.0,29.78,South,174,1.0,7.0,89,0.00,,,0.00,weatherlink.com 1.10,2013-07-22 08:32:00,
2013-07-22 03:40:00,72.0,68.9,29.77,SSW,202,3.0,5.0,90,0.00,,---,0.00,VWS V14.01,2013-07-22 08:40:00,
2013-07-22 03:47:00,71.8,69.0,29.78,SW,217,1.0,5.0,89,0.00,,,0.00,weatherlink.com 1.10,2013-07-22 08:47:00,
2013-07-22 03:50:00,71.8,68.4,29.78,SSW,202,2.0,6.0,89,0.00,,---,0.00,VWS V14.01,2013-07-22 08:50:00,
2013-07-22 04:00:00,71.7,68.3,29.77,SSW,202,2.0,5.0,89,0.00,,---,0.00,VWS V14.01,2013-07-22 09:00:00,
2013-07-22 04:02:00,71.8,69.0,29.77,SW,233,1.0,5.0,89,0.00,,,0.00,weatherlink.com 1.10,2013-07-22 09:02:00,
2013-07-22 04:10:00,71.7,68.3,29.77,SSW,202,2.0,6.0,89,0.00,,---,0.00,VWS V14.01,2013-07-22 09:10:00,
2013-07-22 04:17:00,71.3,68.0,29.77,SW,226,1.0,4.0,90,0.00,,,0.00,weatherlink.com 1.10,2013-07-22 09:17:00,
2013-07-22 04:20:00,71.4,68.3,29.77,SSW,202,2.0,4.0,90,0.00,,---,0.00,VWS V14.01,2013-07-22 09:20:00,
2013-07-22 04:30:00,71.1,68.0,29.77,SSW,202,1.0,5.0,90,0.00,,---,0.00,VWS V14.01,2013-07-22 09:30:00,
2013-07-22 04:32:00,71.0,68.0,29.77,SSW,212,1.0,5.0,90,0.00,,,0.00,weatherlink.com 1.10,2013-07-22 09:32:00,
2013-07-22 04:40:00,71.0,67.9,29.76,SSW,202,2.0,5.0,90,0.00,,---,0.00,VWS V14.01,2013-07-22 09:40:00,
2013-07-22 04:47:00,71.1,68.0,29.76,SW,224,1.0,5.0,90,0.00,,,0.00,weatherlink.com 1.10,2013-07-22 09:47:00,
2013-07-22 04:50:00,71.1,68.0,29.77,SSW,202,2.0,5.0,90,0.00,,---,0.00,VWS V14.01,2013-07-22 09:50:00,
2013-07-22 05:00:00,70.7,67.9,29.77,SSW,202,2.0,4.0,91,0.00,,---,0.00,VWS V14.01,2013-07-22 10:00:00,
2013-07-22 05:02:00,70.6,68.0,29.77,SSW,210,2.0,4.0,91,0.00,,,0.00,weatherlink.com 1.10,2013-07-22 10:02:00,
2013-07-22 05:10:00,70.5,67.8,29.77,SSW,202,3.0,6.0,91,0.00,,---,0.00,VWS V14.01,2013-07-22 10:10:00,
2013-07-22 05:17:00,70.4,68.0,29.78,SW,214,4.0,7.0,91,0.00,,,0.00,weatherlink.com 1.10,2013-07-22 10:17:00,
2013-07-22 05:20:00,70.5,67.8,29.78,SSW,202,3.0,7.0,91,0.00,,---,0.00,VWS V14.01,2013-07-22 10:20:00,
2013-07-22 05:30:00,70.3,67.9,29.77,SSW,202,2.0,7.0,92,0.00,,---,0.00,VWS V14.01,2013-07-22 10:30:00,
2013-07-22 05:32:00,70.1,68.0,29.78,East,87,2.0,7.0,92,0.00,,,0.00,weatherlink.com 1.10,2013-07-22 10:32:00,
2013-07-22 05:40:00,70.1,67.7,29.78,SSW,202,2.0,5.0,92,0.00,,---,0.00,VWS V14.01,2013-07-22 10:40:00,
2013-07-22 05:47:00,70.1,68.0,29.78,WNW,302,2.0,6.0,92,0.00,,,0.00,weatherlink.com 1.10,2013-07-22 10:47:00,
2013-07-22 05:50:00,70.1,67.7,29.78,SSW,202,2.0,6.0,92,0.00,,---,0.00,VWS V14.01,2013-07-22 10:50:00,
2013-07-22 06:00:00,70.0,67.6,29.77,SSW,202,2.0,5.0,92,0.00,,---,0.00,VWS V14.01,2013-07-22 11:00:00,
2013-07-22 06:02:00,70.0,68.0,29.77,South,191,1.0,5.0,92,0.00,,,0.00,weatherlink.com 1.10,2013-07-22 11:02:00,
2013-07-22 06:10:00,70.0,67.6,29.77,SSW,202,2.0,4.0,92,0.00,,---,0.00,VWS V14.01,2013-07-22 11:10:00,
2013-07-22 06:17:00,70.0,67.0,29.77,South,188,1.0,3.0,91,0.00,,,0.00,weatherlink.com 1.10,2013-07-22 11:17:00,
2013-07-22 06:20:00,70.1,67.7,29.77,SSW,202,1.0,3.0,92,0.00,,---,0.00,VWS V14.01,2013-07-22 11:20:00,
2013-07-22 06:30:00,69.7,67.6,29.77,SSW,202,1.0,4.0,93,0.00,,---,0.00,VWS V14.01,2013-07-22 11:30:00,
2013-07-22 06:32:00,69.5,68.0,29.77,South,170,2.0,3.0,93,0.00,,,0.00,weatherlink.com 1.10,2013-07-22 11:32:00,
2013-07-22 06:40:00,69.7,67.3,29.77,SSW,202,1.0,3.0,92,0.00,,---,0.00,VWS V14.01,2013-07-22 11:40:00,
2013-07-22 06:47:00,70.6,68.0,29.77,SSW,205,1.0,3.0,91,0.00,,,0.00,weatherlink.com 1.10,2013-07-22 11:47:00,
2013-07-22 06:50:00,70.5,67.8,29.77,SSW,202,1.0,4.0,91,0.00,,---,0.00,VWS V14.01,2013-07-22 11:50:00,
2013-07-22 07:00:00,71.0,67.9,29.77,SSW,202,2.0,4.0,90,0.00,,---,0.00,VWS V14.01,2013-07-22 12:00:00,
2013-07-22 07:02:00,71.6,69.0,29.77,SSW,202,3.0,4.0,90,0.00,,,0.00,weatherlink.com 1.10,2013-07-22 12:02:00,
2013-07-22 07:10:00,71.9,68.2,29.77,SSW,202,2.0,5.0,88,0.00,,---,0.00,VWS V14.01,2013-07-22 12:10:00,
2013-07-22 07:17:00,72.7,69.0,29.77,SSW,210,1.0,4.0,88,0.00,,,0.00,weatherlink.com 1.10,2013-07-22 12:17:00,
2013-07-22 07:20:00,72.6,68.8,29.77,SSW,202,1.0,4.0,88,0.00,,---,0.00,VWS V14.01,2013-07-22 12:20:00,
2013-07-22 07:30:00,73.2,69.1,29.78,SSW,202,2.0,4.0,87,0.00,,---,0.00,VWS V14.01,2013-07-22 12:30:00,
2013-07-22 07:32:00,73.7,69.0,29.78,SSW,192,1.0,4.0,86,0.00,,,0.00,weatherlink.com 1.10,2013-07-22 12:32:00,
2013-07-22 07:40:00,74.0,69.2,29.78,SSW,202,2.0,5.0,85,0.00,,---,0.00,VWS V14.01,2013-07-22 12:40:00,
2013-07-22 07:48:00,75.6,70.0,29.79,SSW,203,1.0,4.0,83,0.00,,,0.00,weatherlink.com 1.10,2013-07-22 12:48:00,
2013-07-22 07:50:00,75.2,69.3,29.79,SSW,202,1.0,3.0,82,0.00,,---,0.00,VWS V14.01,2013-07-22 12:50:00,
2013-07-22 08:00:00,76.3,70.1,29.79,SSW,202,2.0,7.0,81,0.00,,---,0.00,VWS V14.01,2013-07-22 13:00:00,
2013-07-22 08:03:00,76.9,71.0,29.79,SW,219,5.0,7.0,81,0.00,,,0.00,weatherlink.com 1.10,2013-07-22 13:03:00,
2013-07-22 08:10:00,76.9,70.3,29.79,SSW,202,3.0,10.0,80,0.00,,---,0.00,VWS V14.01,2013-07-22 13:10:00,
2013-07-22 08:18:00,77.4,71.0,29.79,WNW,297,3.0,10.0,80,0.00,,,0.00,weatherlink.com 1.10,2013-07-22 13:18:00,
2013-07-22 08:20:00,77.4,70.8,29.79,SSW,202,3.0,10.0,80,0.00,,---,0.00,VWS V14.01,2013-07-22 13:20:00,
2013-07-22 08:30:00,77.8,70.8,29.79,SSW,202,3.0,8.0,79,0.00,,---,0.00,VWS V14.01,2013-07-22 13:30:00,
2013-07-22 08:33:00,77.7,71.0,29.79,SW,218,1.0,8.0,80,0.00,,,0.00,weatherlink.com 1.10,2013-07-22 13:33:00,
2013-07-22 08:40:00,77.8,71.1,29.79,SSW,202,3.0,8.0,80,0.00,,---,0.00,VWS V14.01,2013-07-22 13:40:00,
2013-07-22 08:48:00,78.9,72.0,29.79,SW,219,4.0,8.0,79,0.00,,,0.00,weatherlink.com 1.10,2013-07-22 13:48:00,
2013-07-22 08:50:00,78.5,71.4,29.79,SSW,202,3.0,7.0,79,0.00,,---,0.00,VWS V14.01,2013-07-22 13:50:00,
2013-07-22 09:00:00,79.7,71.5,29.79,SSW,202,2.0,7.0,76,0.00,,---,0.00,VWS V14.01,2013-07-22 14:00:00,
2013-07-22 09:03:00,80.5,73.0,29.79,East,81,2.0,7.0,77,0.00,,,0.00,weatherlink.com 1.10,2013-07-22 14:03:00,
2013-07-22 09:10:00,80.6,72.3,29.79,SSW,202,3.0,8.0,76,0.00,,---,0.00,VWS V14.01,2013-07-22 14:10:00,
2013-07-22 09:18:00,81.9,73.0,29.79,SE,143,5.0,8.0,74,0.00,,,0.00,weatherlink.com 1.10,2013-07-22 14:18:00,
2013-07-22 09:20:00,81.6,72.5,29.80,SSW,202,3.0,10.0,74,0.00,,---,0.00,VWS V14.01,2013-07-22 14:20:00,
2013-07-22 09:30:00,82.7,72.3,29.79,SSW,202,3.0,9.0,71,0.00,,---,0.00,VWS V14.01,2013-07-22 14:30:00,
2013-07-22 09:33:00,83.0,73.0,29.79,NNW,345,4.0,8.0,71,0.00,,,0.00,weatherlink.com 1.10,2013-07-22 14:33:00,
2013-07-22 09:40:00,82.8,72.9,29.80,SSW,202,4.0,11.0,72,0.00,,---,0.00,VWS V14.01,2013-07-22 14:40:00,
2013-07-22 09:48:00,82.4,73.0,29.80,West,277,3.0,11.0,73,0.00,,,0.00,weatherlink.com 1.10,2013-07-22 14:48:00,
2013-07-22 09:50:00,82.2,72.7,29.80,SSW,202,4.0,11.0,73,0.00,,---,0.00,VWS V14.01,2013-07-22 14:50:00,
2013-07-22 10:00:00,82.7,72.8,29.79,SSW,202,4.0,9.0,72,0.00,,---,0.00,VWS V14.01,2013-07-22 15:00:00,
2013-07-22 10:03:00,83.4,74.0,29.79,SSW,201,5.0,9.0,72,0.00,,,0.00,weatherlink.com 1.10,2013-07-22 15:03:00,
2013-07-22 10:10:00,83.8,72.6,29.79,SSW,202,4.0,11.0,69,0.00,,---,0.00,VWS V14.01,2013-07-22 15:10:00,
2013-07-22 10:18:00,85.1,73.0,29.79,WSW,257,5.0,9.0,68,0.00,,,0.00,weatherlink.com 1.10,2013-07-22 15:18:00,
2013-07-22 10:20:00,84.8,73.5,29.79,SSW,202,3.0,9.0,69,0.00,,---,0.00,VWS V14.01,2013-07-22 15:20:00,
2013-07-22 10:30:00,85.5,73.7,29.78,SSW,202,3.0,9.0,68,0.00,,---,0.00,VWS V14.01,2013-07-22 15:30:00,
2013-07-22 10:33:00,86.5,74.0,29.78,SSW,202,3.0,8.0,67,0.00,,,0.00,weatherlink.com 1.10,2013-07-22 15:33:00,
2013-07-22 10:40:00,86.6,73.4,29.78,SSW,202,2.0,6.0,65,0.00,,---,0.00,VWS V14.01,2013-07-22 15:40:00,
2013-07-22 10:48:00,88.8,74.0,29.78,East,91,3.0,6.0,62,0.00,,,0.00,weatherlink.com 1.10,2013-07-22 15:48:00,
2013-07-22 10:50:00,88.2,73.1,29.78,SSW,202,2.0,6.0,61,0.00,,---,0.00,VWS V14.01,2013-07-22 15:50:00,
2013-07-22 11:00:00,88.8,73.6,29.78,SSW,202,3.0,9.0,61,0.00,,---,0.00,VWS V14.01,2013-07-22 16:00:00,
2013-07-22 11:03:00,88.4,74.0,29.77,SSW,203,3.0,9.0,62,0.00,,,0.00,weatherlink.com 1.10,2013-07-22 16:03:00,
2013-07-22 11:10:00,88.6,73.9,29.78,SSW,202,2.0,7.0,62,0.00,,---,0.00,VWS V14.01,2013-07-22 16:10:00,
2013-07-22 11:20:00,90.1,73.8,29.78,SSW,202,2.0,6.0,59,0.00,,---,0.00,VWS V14.01,2013-07-22 16:20:00,
2013-07-22 11:30:00,90.0,73.8,29.78,SSW,202,3.0,9.0,59,0.00,,---,0.00,VWS V14.01,2013-07-22 16:30:00,
2013-07-22 11:33:00,90.3,74.0,29.78,West,277,1.0,9.0,58,0.00,,,0.00,weatherlink.com 1.10,2013-07-22 16:33:00,
2013-07-22 11:40:00,90.5,73.2,29.77,SSW,202,2.0,5.0,57,0.00,,---,0.00,VWS V14.01,2013-07-22 16:40:00,
2013-07-22 11:48:00,92.0,73.0,29.77,SW,217,4.0,6.0,54,0.00,,,0.00,weatherlink.com 1.10,2013-07-22 16:48:00,
2013-07-22 11:50:00,91.6,73.7,29.77,SSW,202,2.0,6.0,56,0.00,,---,0.00,VWS V14.01,2013-07-22 16:50:00,
2013-07-22 12:00:00,92.9,74.4,29.78,SSW,202,2.0,7.0,55,0.00,,---,0.00,VWS V14.01,2013-07-22 17:00:00,
2013-07-22 12:03:00,92.2,75.0,29.78,SSE,148,3.0,7.0,58,0.00,,,0.00,weatherlink.com 1.10,2013-07-22 17:03:00,
2013-07-22 12:10:00,92.2,73.7,29.78,SSW,202,3.0,8.0,55,0.00,,---,0.00,VWS V14.01,2013-07-22 17:10:00,
2013-07-22 12:18:00,91.7,73.0,29.78,SSW,204,4.0,8.0,55,0.00,,,0.00,weatherlink.com 1.10,2013-07-22 17:18:00,
2013-07-22 12:20:00,92.2,74.2,29.78,SSW,202,3.0,9.0,56,0.00,,---,0.00,VWS V14.01,2013-07-22 17:20:00,
2013-07-22 12:30:00,91.8,72.2,29.78,SSW,202,3.0,11.0,53,0.00,,---,0.00,VWS V14.01,2013-07-22 17:30:00,
2013-07-22 12:33:00,92.5,73.0,29.78,SSW,199,6.0,11.0,54,0.00,,,0.00,weatherlink.com 1.10,2013-07-22 17:33:00,
2013-07-22 12:40:00,92.5,72.3,29.77,SSW,202,3.0,10.0,52,0.00,,---,0.00,VWS V14.01,2013-07-22 17:40:00,
2013-07-22 12:48:00,93.6,72.0,29.78,South,186,4.0,9.0,49,0.00,,,0.00,weatherlink.com 1.10,2013-07-22 17:48:00,
2013-07-22 12:50:00,93.4,71.4,29.78,SSW,202,3.0,9.0,49,0.00,,---,0.00,VWS V14.01,2013-07-22 17:50:00,
2013-07-22 13:00:00,93.4,69.5,29.78,SSW,202,2.0,8.0,46,0.00,,---,0.00,VWS V14.01,2013-07-22 18:00:00,
2013-07-22 13:03:00,94.7,71.0,29.77,SSE,162,2.0,8.0,47,0.00,,,0.00,weatherlink.com 1.10,2013-07-22 18:03:00,
2013-07-22 13:10:00,94.5,69.9,29.77,SSW,202,3.0,8.0,45,0.00,,---,0.00,VWS V14.01,2013-07-22 18:10:00,
2013-07-22 13:18:00,95.9,71.0,29.78,South,176,1.0,5.0,44,0.00,,,0.00,weatherlink.com 1.10,2013-07-22 18:18:00,
2013-07-22 13:20:00,95.4,69.4,29.77,SSW,202,1.0,5.0,43,0.00,,---,0.00,VWS V14.01,2013-07-22 18:20:00,
2013-07-22 13:30:00,96.9,68.6,29.77,SSW,202,1.0,6.0,40,0.00,,---,0.00,VWS V14.01,2013-07-22 18:30:00,
2013-07-22 13:34:00,98.0,70.0,29.77,West,279,1.0,4.0,40,0.00,,,0.00,weatherlink.com 1.10,2013-07-22 18:34:00,
2013-07-22 13:40:00,98.2,69.8,29.77,North,0,1.0,4.0,40,0.00,,---,0.00,VWS V14.01,2013-07-22 18:40:00,
2013-07-22 13:49:00,96.6,72.0,29.77,ESE,102,1.0,4.0,45,0.00,,,0.00,weatherlink.com 1.10,2013-07-22 18:49:00,
2013-07-22 13:50:00,97.1,70.2,29.77,East,90,1.0,4.0,42,0.00,,---,0.00,VWS V14.01,2013-07-22 18:50:00,
2013-07-22 14:00:00,97.9,70.2,29.77,ESE,112,1.0,3.0,41,0.00,,---,0.00,VWS V14.01,2013-07-22 19:00:00,
2013-07-22 14:04:00,99.3,72.0,29.76,East,82,5.0,7.0,41,0.00,,,0.00,weatherlink.com 1.10,2013-07-22 19:04:00,
2013-07-22 14:10:00,98.3,72.7,29.76,South,180,3.0,12.0,44,0.00,,---,0.00,VWS V14.01,2013-07-22 19:10:00,
2013-07-22 14:19:00,96.6,72.0,29.76,East,94,1.0,10.0,45,0.00,,,0.00,weatherlink.com 1.10,2013-07-22 19:19:00,
2013-07-22 14:20:00,96.1,71.3,29.77,SSW,202,2.0,10.0,45,0.00,,---,0.00,VWS V14.01,2013-07-22 19:20:00,
2013-07-22 14:30:00,97.4,72.5,29.77,SSW,202,1.0,6.0,45,0.00,,---,0.00,VWS V14.01,2013-07-22 19:30:00,
2013-07-22 14:34:00,97.4,72.0,29.77,East,99,0.0,5.0,44,0.00,,,0.00,weatherlink.com 1.10,2013-07-22 19:34:00,
2013-07-22 14:40:00,97.0,72.8,29.77,SSW,202,2.0,6.0,46,0.00,,---,0.00,VWS V14.01,2013-07-22 19:40:00,
2013-07-22 14:49:00,96.1,72.0,29.77,South,171,5.0,8.0,46,0.00,,,0.00,weatherlink.com 1.10,2013-07-22 19:49:00,
2013-07-22 14:50:00,96.1,72.0,29.77,SSW,202,3.0,8.0,46,0.00,,---,0.00,VWS V14.01,2013-07-22 19:50:00,
2013-07-22 15:00:00,96.4,72.3,29.77,SSW,202,2.0,9.0,46,0.00,,---,0.00,VWS V14.01,2013-07-22 20:00:00,
2013-07-22 15:04:00,96.7,75.0,29.77,SE,124,3.0,9.0,49,0.00,,,0.00,weatherlink.com 1.10,2013-07-22 20:04:00,
2013-07-22 15:10:00,96.4,73.5,29.77,SSW,202,4.0,8.0,48,0.00,,---,0.00,VWS V14.01,2013-07-22 20:10:00,
2013-07-22 15:19:00,94.7,73.0,29.77,SSW,203,4.0,10.0,50,0.00,,,0.00,weatherlink.com 1.10,2013-07-22 20:19:00,
2013-07-22 15:20:00,94.9,73.4,29.77,SSW,202,3.0,10.0,50,0.00,,---,0.00,VWS V14.01,2013-07-22 20:20:00,
2013-07-22 15:30:00,95.2,74.2,29.76,SSW,202,4.0,11.0,51,0.00,,---,0.00,VWS V14.01,2013-07-22 20:30:00,
2013-07-22 15:34:00,94.3,74.0,29.77,SSW,208,5.0,11.0,52,0.00,,,0.00,weatherlink.com 1.10,2013-07-22 20:34:00,
2013-07-22 15:40:00,94.3,73.4,29.76,SSW,202,6.0,13.0,51,0.00,,---,0.00,VWS V14.01,2013-07-22 20:40:00,
2013-07-22 15:49:00,94.0,74.0,29.77,SSE,164,4.0,12.0,52,0.00,,,0.00,weatherlink.com 1.10,2013-07-22 20:49:00,
2013-07-22 15:50:00,94.0,73.1,29.76,SSW,202,4.0,12.0,51,0.00,,---,0.00,VWS V14.01,2013-07-22 20:50:00,
2013-07-22 16:00:00,93.9,73.0,29.76,SSW,202,5.0,12.0,51,0.00,,---,0.00,VWS V14.01,2013-07-22 21:00:00,
2013-07-22 16:04:00,94.1,73.0,29.76,SSW,213,3.0,12.0,51,0.00,,,0.00,weatherlink.com 1.10,2013-07-22 21:04:00,
2013-07-22 16:10:00,94.2,72.1,29.76,SSW,202,4.0,9.0,49,0.00,,---,0.00,VWS V14.01,2013-07-22 21:10:00,
2013-07-22 16:19:00,94.6,73.0,29.76,SW,221,6.0,11.0,50,0.00,,,0.00,weatherlink.com 1.10,2013-07-22 21:19:00,
2013-07-22 16:20:00,94.3,72.2,29.76,SSW,202,4.0,11.0,49,0.00,,---,0.00,VWS V14.01,2013-07-22 21:20:00,
2013-07-22 16:30:00,94.4,72.3,29.76,SSW,202,5.0,9.0,49,0.00,,---,0.00,VWS V14.01,2013-07-22 21:30:00,
2013-07-22 16:34:00,94.0,72.0,29.76,SW,214,2.0,10.0,49,0.00,,,0.00,weatherlink.com 1.10,2013-07-22 21:34:00,
2013-07-22 16:40:00,94.1,72.0,29.76,SSW,202,4.0,11.0,49,0.00,,---,0.00,VWS V14.01,2013-07-22 21:40:00,
2013-07-22 16:49:00,94.3,71.0,29.76,SE,131,5.0,10.0,47,0.00,,,0.00,weatherlink.com 1.10,2013-07-22 21:49:00,
2013-07-22 16:50:00,94.3,71.0,29.76,SSW,202,5.0,10.0,47,0.00,,---,0.00,VWS V14.01,2013-07-22 21:50:00,
2013-07-22 17:00:00,94.2,70.9,29.76,SSW,202,6.0,14.0,47,0.00,,---,0.00,VWS V14.01,2013-07-22 22:00:00,
2013-07-22 17:04:00,94.0,71.0,29.76,SSW,206,5.0,11.0,48,0.00,,,0.00,weatherlink.com 1.10,2013-07-22 22:04:00,
2013-07-22 17:10:00,94.1,70.8,29.76,SSW,202,4.0,9.0,47,0.00,,---,0.00,VWS V14.01,2013-07-22 22:10:00,
2013-07-22 17:19:00,94.5,71.0,29.76,SSW,193,4.0,12.0,47,0.00,,,0.00,weatherlink.com 1.10,2013-07-22 22:19:00,
2013-07-22 17:20:00,94.5,71.8,29.76,SSW,202,5.0,12.0,48,0.00,,---,0.00,VWS V14.01,2013-07-22 22:20:00,
2013-07-22 17:30:00,94.4,71.7,29.75,SSW,202,4.0,8.0,48,0.00,,---,0.00,VWS V14.01,2013-07-22 22:30:00,
2013-07-22 17:34:00,94.2,72.0,29.75,SSW,203,4.0,10.0,49,0.00,,,0.00,weatherlink.com 1.10,2013-07-22 22:34:00,
2013-07-22 17:40:00,94.2,72.7,29.75,SSW,202,5.0,12.0,50,0.00,,---,0.00,VWS V14.01,2013-07-22 22:40:00,
2013-07-22 17:49:00,93.2,72.0,29.75,South,191,4.0,11.0,50,0.00,,,0.00,weatherlink.com 1.10,2013-07-22 22:49:00,
2013-07-22 17:50:00,93.6,72.8,29.75,SSW,202,5.0,11.0,51,0.00,,---,0.00,VWS V14.01,2013-07-22 22:50:00,
2013-07-22 18:00:00,92.9,72.1,29.75,SSW,202,3.0,9.0,51,0.00,,---,0.00,VWS V14.01,2013-07-22 23:00:00,
2013-07-22 18:04:00,91.8,72.0,29.75,SSW,195,4.0,7.0,52,0.00,,,0.00,weatherlink.com 1.10,2013-07-22 23:04:00,
2013-07-22 18:10:00,91.7,71.6,29.74,SSW,202,4.0,7.0,52,0.00,,---,0.00,VWS V14.01,2013-07-22 23:10:00,
2013-07-22 18:19:00,90.2,70.0,29.74,SSW,210,4.0,8.0,52,0.00,,,0.00,weatherlink.com 1.10,2013-07-22 23:19:00,
2013-07-22 18:20:00,90.7,70.7,29.74,SSW,202,3.0,8.0,52,0.00,,---,0.00,VWS V14.01,2013-07-22 23:20:00,
2013-07-22 18:30:00,94.4,71.7,29.75,SSW,202,4.0,8.0,48,0.00,,---,0.00,VWS V14.01,2013-07-22 23:30:00,
2013-07-22 18:35:00,91.5,70.8,29.74,SSW,200,2.0,3.0,51,0.00,,---,0.00,VWS V14.01,2013-07-22 23:35:00,
2013-07-22 18:40:00,91.6,73.2,29.74,SW,233,3.0,3.0,55,0.01,,---,0.01,VWS V14.01,2013-07-22 23:40:00,
2013-07-22 18:45:00,90.0,73.8,29.74,South,185,5.0,9.0,59,0.03,,---,0.03,VWS V14.01,2013-07-22 23:45:00,
2013-07-22 18:50:00,89.0,72.8,29.75,SE,131,4.0,4.0,59,0.03,,---,0.03,VWS V14.01,2013-07-22 23:50:00,
2013-07-22 18:55:00,88.6,72.4,29.75,SSE,166,4.0,5.0,59,0.03,,---,0.03,VWS V14.01,2013-07-22 23:55:00,
2013-07-22 19:00:00,88.2,73.6,29.75,SSW,205,1.0,6.0,62,0.05,,---,0.05,VWS V14.01,2013-07-23 00:00:00,
2013-07-22 19:05:00,87.6,73.9,29.74,SW,220,0.0,6.0,64,0.08,,---,0.08,VWS V14.01,2013-07-23 00:05:00,
2013-07-22 19:10:00,87.3,76.8,29.73,WSW,257,2.0,2.0,71,0.08,,---,0.08,VWS V14.01,2013-07-23 00:10:00,
2013-07-22 19:15:00,86.8,75.0,29.74,SSW,210,2.0,4.0,68,0.08,,---,0.08,VWS V14.01,2013-07-23 00:15:00,
2013-07-22 19:20:00,86.2,72.6,29.74,NNW,343,1.0,4.0,64,0.08,,---,0.08,VWS V14.01,2013-07-23 00:20:00,
2013-07-22 19:25:00,85.8,72.2,29.75,South,170,0.0,3.0,64,0.08,,---,0.08,VWS V14.01,2013-07-23 00:25:00,
2013-07-22 19:30:00,86.1,73.4,29.75,ESE,103,0.0,3.0,66,0.08,,---,0.08,VWS V14.01,2013-07-23 00:30:00,
2013-07-22 19:35:00,86.5,73.3,29.75,ESE,108,1.0,1.0,65,0.07,,---,0.08,VWS V14.01,2013-07-23 00:35:00,
2013-07-22 19:40:00,85.8,74.0,29.75,NNE,24,7.0,7.0,68,0.07,,---,0.08,VWS V14.01,2013-07-23 00:40:00,
2013-07-22 19:45:00,83.9,74.7,29.75,NE,43,2.0,7.0,74,0.07,,---,0.08,VWS V14.01,2013-07-23 00:45:00,
2013-07-22 19:50:00,83.0,73.5,29.75,SE,136,1.0,7.0,73,0.07,,---,0.08,VWS V14.01,2013-07-23 00:50:00,
2013-07-22 19:55:00,83.4,73.8,29.74,South,170,0.0,2.0,73,0.05,,---,0.08,VWS V14.01,2013-07-23 00:55:00,
2013-07-22 20:00:00,83.6,74.4,29.75,South,169,0.0,2.0,74,0.05,,---,0.08,VWS V14.01,2013-07-23 01:00:00,
2013-07-22 20:05:00,83.4,74.7,29.75,SE,137,0.0,1.0,75,0.03,,---,0.08,VWS V14.01,2013-07-23 01:05:00,
2013-07-22 20:10:00,83.6,74.4,29.75,SE,131,0.0,1.0,74,0.03,,---,0.08,VWS V14.01,2013-07-23 01:10:00,
2013-07-22 20:15:00,84.0,74.0,29.75,ESE,113,0.0,0.0,72,0.00,,---,0.08,VWS V14.01,2013-07-23 01:15:00,
2013-07-22 20:20:00,84.1,76.1,29.76,NNW,345,1.0,4.0,77,0.00,,---,0.08,VWS V14.01,2013-07-23 01:20:00,
2013-07-22 20:25:00,82.8,74.5,29.76,ENE,57,3.0,5.0,76,0.00,,---,0.08,VWS V14.01,2013-07-23 01:25:00,
2013-07-22 20:30:00,81.4,74.6,29.77,NE,39,4.0,6.0,80,0.00,,---,0.08,VWS V14.01,2013-07-23 01:30:00,
2013-07-22 20:35:00,80.4,72.2,29.77,North,354,3.0,7.0,76,0.00,,---,0.08,VWS V14.01,2013-07-23 01:35:00,
2013-07-22 20:40:00,79.8,71.6,29.76,NNE,20,2.0,7.0,76,0.00,,---,0.08,VWS V14.01,2013-07-23 01:40:00,
2013-07-22 20:50:00,79.3,72.0,29.76,NNW,343,2.0,3.0,77,0.00,,,0.08,weatherlink.com 1.10,2013-07-23 01:50:00,
2013-07-22 21:00:00,79.3,69.9,29.76,North,0,2.0,7.0,73,0.00,,---,0.08,VWS V14.01,2013-07-23 02:00:00,
2013-07-22 21:05:00,79.5,71.0,29.77,North,349,4.0,7.0,74,0.00,,,0.08,weatherlink.com 1.10,2013-07-23 02:05:00,
2013-07-22 21:10:00,79.5,70.5,29.77,North,0,3.0,8.0,74,0.00,,---,0.08,VWS V14.01,2013-07-23 02:10:00,
2013-07-22 21:20:00,79.0,70.0,29.78,NNW,338,5.0,9.0,74,0.00,,,0.08,weatherlink.com 1.10,2013-07-23 02:20:00,
2013-07-22 21:30:00,79.1,70.1,29.78,NNW,338,5.0,9.0,74,0.00,,---,0.08,VWS V14.01,2013-07-23 02:30:00,
2013-07-22 21:35:00,78.8,70.0,29.79,North,359,4.0,9.0,74,0.00,,,0.08,weatherlink.com 1.10,2013-07-23 02:35:00,
2013-07-22 21:40:00,78.8,70.2,29.79,NNW,338,5.0,11.0,75,0.00,,---,0.08,VWS V14.01,2013-07-23 02:40:00,
2013-07-22 21:50:00,78.4,70.0,29.80,NW,325,3.0,12.0,74,0.00,,,0.08,weatherlink.com 1.10,2013-07-23 02:50:00,
2013-07-22 22:00:00,78.4,67.4,29.80,North,0,6.0,13.0,69,0.00,,---,0.08,VWS V14.01,2013-07-23 03:00:00,
2013-07-22 22:05:00,78.1,67.0,29.81,North,349,8.0,13.0,68,0.00,,,0.08,weatherlink.com 1.10,2013-07-23 03:05:00,
2013-07-22 22:10:00,78.1,66.3,29.81,North,0,6.0,13.0,67,0.00,,---,0.08,VWS V14.01,2013-07-23 03:10:00,
2013-07-22 22:20:00,77.5,66.0,29.82,NNW,335,8.0,14.0,67,0.00,,,0.08,weatherlink.com 1.10,2013-07-23 03:20:00,
2013-07-22 22:30:00,77.2,66.7,29.82,North,0,5.0,10.0,70,0.00,,---,0.08,VWS V14.01,2013-07-23 03:30:00,
2013-07-22 22:35:00,76.3,66.0,29.83,NNE,13,8.0,10.0,71,0.00,,,0.08,weatherlink.com 1.10,2013-07-23 03:35:00,
2013-07-22 22:40:00,76.4,65.5,29.83,NNE,22,6.0,11.0,69,0.00,,---,0.08,VWS V14.01,2013-07-23 03:40:00,
2013-07-22 22:50:00,75.9,64.6,29.83,North,0,5.0,11.0,68,0.00,,---,0.08,VWS V14.01,2013-07-23 03:50:00,
2013-07-22 22:51:00,75.7,64.0,29.83,NNW,347,2.0,11.0,68,0.00,,,0.08,weatherlink.com 1.10,2013-07-23 03:51:00,
2013-07-22 23:00:00,75.5,63.4,29.84,North,0,5.0,12.0,66,0.00,,---,0.08,VWS V14.01,2013-07-23 04:00:00,
2013-07-22 23:06:00,75.2,63.0,29.84,NNW,342,4.0,12.0,66,0.00,,,0.08,weatherlink.com 1.10,2013-07-23 04:06:00,
2013-07-22 23:10:00,75.3,63.2,29.85,North,0,6.0,12.0,66,0.00,,---,0.08,VWS V14.01,2013-07-23 04:10:00,
2013-07-22 23:20:00,75.1,63.0,29.84,North,0,5.0,11.0,66,0.00,,---,0.08,VWS V14.01,2013-07-23 04:20:00,
2013-07-22 23:21:00,75.0,63.0,29.84,NNE,15,3.0,11.0,66,0.00,,,0.08,weatherlink.com 1.10,2013-07-23 04:21:00,
2013-07-22 23:30:00,74.7,63.0,29.84,North,0,5.0,15.0,67,0.00,,---,0.08,VWS V14.01,2013-07-23 04:30:00,
2013-07-22 23:36:00,74.8,63.0,29.84,North,352,6.0,15.0,66,0.00,,,0.08,weatherlink.com 1.10,2013-07-23 04:36:00,
2013-07-22 23:40:00,74.8,62.3,29.84,NE,45,5.0,11.0,65,0.00,,---,0.08,VWS V14.01,2013-07-23 04:40:00,
2013-07-22 23:50:00,75.0,62.9,29.84,North,0,6.0,12.0,66,0.00,,---,0.08,VWS V14.01,2013-07-23 04:50:00,
2013-07-22 23:51:00,75.0,63.0,29.84,NNE,12,8.0,12.0,66,0.00,,,0.08,weatherlink.com 1.10,2013-07-23 04:51:00,